Presure
174 92 97 174 180 170 102 106 159 144 104 99 91 91 97 96 94 118 115 127 125 112 113 160 119 179 98 138 167 86 167 85 87 142 162 149 166 105 123 131 138 150 146
178 177 170 158 173 178 148 99 89 156 157 106 102 97 98 97 118 117 117 95 98 116 124 162 158 95 123 169 82 161 172 174 171 157 142 166 157 167 139 107 148 166 135
125 168 174 166 163 168 95 90 178 158 115 131 103 163 91 166 119 121 117 123 93 95 137 153 158 173 133 160 90 154 91 97 115 95 126 102 119 153 123 134 91 93 95
148 171 172 169 165 168 164 176 84 92 181 98 97 124 97 109 136 143 92 143 99 93 103 108 106 84 97 88 122 86 88 140 166 158 168 105 127 95 96 125 162 93 103
176 168 158 164 169 165 166 91 142 146 88 102 98 97 148 99 96 99 100 169 116 115 99 106 105 112 137 168 85 158 143 159 89 89 148 90 88 102 158 98 154 102 105
176 181 162 162 175 113 174 159 177 158 164 92 128 100 117 145 99 90 103 144 111 183 100 104 99 108 83 118 84 88 156 89 86 92 96 96 163 93 98 98 159 147 101
170 183 187 174 163 177 175 167 163 156 168 168 160 166 172 166 84 97 161 132 99 90 110 122 102 107 100 147 117 97 167 110 92 95 98 104 146 92 90 108 91 90 108
175 172 172 173 166 161 172 180 168 174 132 174 169 91 160 149 165 173 161 103 154 83 133 184 142 139 104 108 79 107 99 174 171 104 158 124 152 121 114 131 95 169 107
170 171 172 191 177 173 169 181 164 168 167 156 179 184 169 167 107 179 180 180 94 167 182 95 102 99 99 90 106 124 90 114 118 169 165 146 142 116 143 103 101 96 103
170 177 174 169 186 192 185 176 177 177 171 170 176 172 171 168 162 86 89 88 89 96 171 181 94 161 87 94 95 97 92 83 84 107 153 110 156 139 162 100 146 91 160
177 166 165 164 167 171 174 174 175 181 180 177 179 185 182 176 173 171 166 83 87 92 116 141 146 119 97 92 85 91 91 94 94 97 112 128 86 152 95 137 101 92 89
173 171 166 162 164 168 165 166 169 173 173 175 180 186 185 191 182 184 176 103 84 120 156 90 88 83 99 90 86 92 96 89 94 173 95 126 127 92 124 124 91 118 88
167 170 172 173 177 181 179 175 163 163 165 166 168 166 168 166 192 187 176 177 171 177 177 169 89 95 96 96 100 95 177 117 93 93 91 94 103 88 87 84 85 93 92
183 133 128 176 177 179 179 179 178 176 180 180 176 170 168 175 174 172 155 94 159 181 178 177 164 89 85 96 173 176 175 169 94 183 182 99 95 87 85 83 87 90 87
197 185 179 181 184 186 156 167 184 179 179 179 180 182 183 180 174 168 177 179 179 122 93 186 186 186 186 180 119 135 80 172 176 90 169 179 126 78 174 98 85 86 80
207 206 203 205 215 216 207 201 182 180 139 199 198 194 191 188 186 184 177 178 190 172 165 143 89 125 182 185 173 163 172 173 86 130 159 115 181 85 75 87 90 100 94
215 217 216 214 215 211 210 212 211 219 212 217 217 144 216 181 189 201 203 204 204 187 187 183 173 169 91 94 178 180 186 169 171 169 173 174 164 95 117 86 183 179 177
190 230 229 225 219 210 207 206 206 207 213 213 209 209 211 216 216 159 201 189 193 195 203 203 208 211 181 183 171 107 94 106 172 166 171 172 172 178 170 184 187 171 184
236 232 191 211 217 221 221 225 226 230 229 234 227 221 213 213 223 220 240 179 157 222 208 203 210 207 201 205 208 194 179 149 91 149 132 166 168 178 174 175 171 146 185
159 157 219 225 200 215 218 218 217 225 218 220 210 220 207 211 235 241 206 240 227 221 224 166 206 184 196 227 196 201 197 201 154 179 91 90 90 90 113 176 125 115 97
208 211 174 227 229 224 220 207 212 212 211 213 215 219 226 228 226 198 240 241 203 247 212 231 220 227 201 198 185 194 190 202 199 194 205 214 222 176 179 177 98 95 92
193 212 197 228 226 222 231 218 165 207 209 219 212 212 212 213 213 226 216 198 235 246 235 233 208 218 211 214 218 180 220 195 187 200 197 195 205 235 228 199 182 185 179
176 196 208 176 213 142 222 215 221 216 221 224 222 206 203 207 215 218 219 228 217 219 234 244 234 224 214 197 237 172 195 196 205 187 188 197 196 203 220 202 228 217 194
211 186 216 216 196 219 227 226 230 230 220 227 231 217 217 209 207 208 210 217 198 225 224 228 235 244 235 214 212 213 209 215 202 225 221 186 188 194 197 219 224 238 235
188 213 183 190 241 238 233 216 220 226 227 227 230 251 219 224 224 211 217 212 214 216 214 221 204 227 228 244 206 230 209 194 232 203 208 223 188 188 189 196 198 219 226
190 216 243 190 183 236 235 230 228 235 224 217 226 251 234 229 220 219 228 219 213 206 213 215 221 210 209 232 239 218 231 206 241 228 220 202 216 222 190 189 192 197 207
Wind_Speed
32 37 38 31 30 31 41 44 42 38 36 32 29 28 30 28 25 35 32 30 34 25 26 33 22 33 19 30 34 14 34 12 11 33 34 33 38 16 20 33 35 34 32
32 32 33 31 29 29 41 40 30 41 41 40 36 33 31 31 39 36 34 23 23 28 31 36 33 20 26 36 13 35 38 38 36 36 34 38 36 41 35 18 39 38 32
40 35 34 35 38 34 37 36 36 44 41 36 39 40 31 37 37 42 39 42 26 27 38 39 36 39 31 38 17 37 16 15 22 17 26 16 28 37 27 34 8 10 9
40 38 38 40 41 40 41 38 30 39 38 39 39 53 37 37 36 38 29 51 32 29 30 31 31 23 25 21 29 17 18 33 39 36 41 19 28 16 15 28 43 12 17
41 43 44 43 45 45 46 36 54 43 34 42 41 39 43 40 37 37 37 44 42 40 33 32 32 33 37 43 22 45 41 43 17 17 39 18 15 21 44 15 43 18 20
43 46 49 49 50 45 48 52 49 52 53 39 48 43 43 55 40 33 41 46 36 38 36 35 34 35 27 34 25 24 48 23 20 21 23 24 44 18 24 21 49 45 23
49 48 52 51 49 51 54 55 55 47 56 55 50 56 51 49 33 42 47 46 37 34 41 43 37 38 35 47 38 30 52 34 27 28 27 32 44 23 19 32 18 17 28
51 51 52 53 54 53 55 57 57 57 50 56 57 46 54 52 55 57 55 38 50 31 44 47 42 43 38 37 24 38 33 56 56 34 52 38 48 34 31 37 25 50 32
52 53 53 53 58 58 58 60 58 59 59 57 60 60 59 58 47 59 58 58 44 53 53 42 45 43 41 33 37 45 29 41 41 59 58 52 47 38 47 32 31 27 31
56 58 58 56 56 59 61 61 62 62 62 63 65 63 63 62 61 44 46 45 44 49 57 55 45 53 35 38 38 39 35 29 30 39 56 39 55 48 58 31 52 24 52
59 58 58 58 59 60 62 64 65 65 66 67 68 69 71 70 69 66 65 44 46 49 54 52 56 53 48 43 34 36 37 40 38 40 43 47 30 57 33 48 32 27 25
61 62 63 63 64 66 65 66 67 68 68 68 70 73 73 75 73 74 72 52 48 57 63 50 48 43 56 44 39 42 46 39 42 68 40 50 49 34 46 45 29 41 28
64 65 67 69 70 72 72 72 70 70 70 71 71 69 69 68 73 75 75 75 74 76 75 71 51 56 56 55 57 50 67 54 44 43 40 42 43 34 34 29 27 35 34
69 59 59 72 73 74 75 76 77 78 79 78 78 76 74 75 76 75 72 62 74 79 78 76 74 50 50 59 73 74 72 69 50 73 73 50 46 37 34 33 36 36 32
68 73 75 76 78 80 71 76 81 81 81 81 81 81 82 81 79 78 80 80 80 69 64 81 80 80 81 77 62 65 44 74 73 47 70 74 58 37 76 47 38 35 34
66 69 72 74 75 77 81 83 83 84 72 87 86 87 88 87 86 85 83 83 84 82 80 75 61 70 81 80 79 78 81 79 52 64 71 54 76 44 32 43 46 52 48
66 68 70 73 75 78 79 80 81 79 83 82 84 77 83 87 87 88 88 87 86 88 88 87 84 83 64 65 84 83 85 84 81 77 78 79 75 58 61 46 82 82 81
63 64 67 70 77 80 81 82 83 84 84 84 87 87 86 86 86 81 87 87 88 88 87 86 85 82 87 86 87 69 65 69 84 84 82 82 81 82 79 80 81 78 84
56 66 68 71 72 72 75 73 73 68 73 70 80 81 84 84 83 86 77 84 86 83 85 87 86 86 87 84 82 85 88 79 65 80 77 82 83 87 82 82 81 73 83
61 62 67 74 78 82 83 83 83 78 80 81 89 84 91 86 74 74 90 78 86 86 85 88 90 90 89 86 87 87 89 86 83 82 69 63 64 63 69 87 73 69 61
55 62 68 70 73 81 86 88 88 88 87 86 84 83 80 78 80 91 74 76 91 77 90 85 87 84 92 90 91 92 91 90 89 90 88 89 89 93 93 90 71 67 58
67 69 68 71 75 76 81 84 81 86 86 91 92 92 91 89 89 81 91 94 79 77 87 85 93 90 91 91 88 95 87 94 94 93 93 93 91 85 91 100 95 97 93
77 75 75 80 76 79 81 85 86 94 89 89 94 98 96 95 93 90 88 84 90 90 83 82 88 92 93 99 85 94 95 95 96 98 97 95 94 92 91 86 95 105 102
74 86 74 77 86 77 81 87 89 92 96 93 97 103 102 102 100 98 98 94 98 89 90 89 86 83 89 97 98 96 94 94 99 92 93 99 99 97 95 91 92 90 95
89 80 92 75 80 83 88 87 89 92 94 96 98 96 106 102 99 104 102 101 99 97 98 93 102 92 93 88 102 95 100 104 93 101 99 96 103 103 100 98 97 93 91
94 87 83 95 98 83 86 92 97 102 102 102 100 99 101 103 107 106 98 103 105 105 103 102 98 104 100 95 92 102 97 103 91 96 101 105 96 100 104 103 101 100 97
Wind_Direction
242 236 233 237 233 233 233 237 242 236 230 224 225 224 230 234 236 255 250 241 255 240 245 242 215 230 237 242 229 208 234 216 226 232 226 228 228 244 240 235 235 237 241
238 236 238 238 234 232 240 231 236 238 239 237 230 226 231 233 249 250 251 220 225 239 251 241 237 227 226 227 215 234 234 228 226 225 232 227 228 228 236 252 234 234 239
242 238 236 236 236 231 233 236 240 242 237 239 236 236 230 239 243 247 249 255 220 226 249 241 238 233 237 233 232 238 240 226 230 241 233 248 245 230 244 246 247 247 265
244 237 237 235 235 235 230 227 241 235 242 234 231 245 231 235 240 236 231 252 234 225 232 233 231 218 224 228 229 232 242 239 233 229 228 241 236 261 253 237 235 255 257
237 238 239 240 239 237 235 243 237 238 238 235 235 233 239 234 234 234 234 241 245 244 234 235 236 240 236 236 228 233 236 236 249 242 227 255 236 254 236 258 238 251 252
234 233 239 239 236 247 235 236 231 240 238 244 241 235 236 244 239 235 235 244 234 240 234 236 235 238 226 234 230 233 234 240 232 258 255 248 230 251 263 262 240 243 261
242 235 233 240 244 240 239 242 242 237 238 238 229 239 234 235 246 239 238 237 234 237 240 241 238 240 238 236 240 235 234 239 244 252 246 259 234 260 265 252 258 259 259
242 243 243 243 247 248 247 243 248 247 242 244 247 238 245 236 239 237 244 245 243 239 239 239 236 236 240 241 238 244 246 236 236 247 241 245 242 241 252 248 266 245 258
246 247 247 242 245 246 248 246 250 250 251 251 245 240 250 252 237 238 237 238 240 243 242 241 237 240 239 234 234 240 238 245 245 238 239 240 246 257 247 260 263 269 263
248 244 246 250 247 246 245 248 249 250 250 251 250 248 248 251 254 242 238 236 238 238 243 241 242 241 243 243 242 243 239 239 240 243 238 248 241 246 246 260 246 265 247
248 254 255 256 255 252 250 249 249 247 247 248 248 247 247 247 246 247 249 244 244 241 241 244 243 242 244 243 241 244 243 245 246 250 245 246 251 247 258 250 260 266 266
252 254 255 256 256 255 255 255 255 255 254 254 251 247 247 246 248 248 248 244 243 248 249 244 245 246 245 247 243 247 247 245 250 241 251 244 245 255 252 252 263 255 267
257 256 254 253 253 253 254 255 257 256 255 255 254 254 253 253 251 247 247 247 249 250 249 248 246 247 247 248 246 248 243 248 250 250 252 254 252 252 256 256 261 266 268
256 257 255 259 259 258 256 255 254 255 254 255 255 255 254 251 251 252 250 250 248 248 248 247 247 246 251 251 246 246 245 242 252 244 242 251 252 251 254 254 260 261 263
258 259 260 260 259 259 257 256 257 258 258 258 257 255 255 254 252 252 252 251 250 249 248 248 247 247 248 245 248 249 249 247 246 253 245 244 249 253 245 258 261 260 260
261 260 261 261 259 258 260 261 263 262 255 260 259 259 258 257 255 253 252 251 251 250 250 249 249 249 248 247 245 247 249 248 255 251 247 246 244 253 259 256 260 259 267
265 263 262 261 260 260 261 261 260 260 260 260 260 254 259 258 257 257 256 255 255 251 250 249 249 250 247 247 249 247 247 251 250 248 248 248 247 258 253 256 246 248 248
270 270 267 265 263 263 264 263 262 262 261 260 260 260 259 260 258 254 256 254 254 254 253 251 251 249 248 247 249 248 248 246 247 250 250 250 249 248 247 246 245 249 250
291 283 270 273 270 268 265 266 267 271 268 268 261 261 260 260 257 257 258 254 253 251 251 251 251 249 247 246 243 243 250 248 249 249 250 253 253 252 250 249 251 247 247
270 273 280 278 271 269 266 265 264 268 266 264 262 261 259 259 259 259 257 255 254 254 251 252 250 248 247 247 245 244 242 242 251 248 252 253 253 255 256 252 255 253 261
287 288 286 282 276 273 270 269 268 266 264 263 264 264 265 265 260 258 261 259 254 251 253 252 248 247 248 246 245 244 245 243 241 242 245 247 245 250 250 252 257 260 264
288 292 279 283 277 275 274 271 269 269 268 265 264 264 262 262 260 262 257 256 257 259 248 250 248 248 247 246 244 246 244 243 245 243 242 242 246 243 244 248 250 251 253
291 287 284 287 280 269 271 270 270 267 266 266 264 262 261 262 261 261 260 259 254 252 255 256 246 247 247 247 243 248 245 244 243 244 245 245 244 245 246 245 243 247 251
293 288 287 284 281 274 276 275 277 276 267 269 266 262 262 261 260 259 258 256 257 256 254 253 254 255 247 246 245 243 242 242 243 241 242 244 244 244 244 245 245 243 243
290 291 291 291 280 277 276 271 272 272 272 270 269 266 261 260 259 259 258 257 256 254 253 253 252 251 249 252 245 245 242 245 242 243 242 242 244 245 244 244 246 246 245
289 293 288 287 292 281 279 275 273 274 270 268 271 267 260 259 259 258 256 255 254 253 253 252 254 251 250 250 250 246 245 243 243 242 241 243 246 243 245 245 245 245 246